Weather History for Bremerton, WA

Change the Weather History Date:

Monday, June 2, 2014

  Actual Average Record
Temperature  
Mean Temperature 58 °F -  
Max Temperature 73 °F 64 °F 80 °F (2007)
Min Temperature 44 °F 45 °F 37 °F (1999)
Degree Days  
Heating Degree Days 6    
Growing Degree Days 8 (Base 50)    
Moisture  
Dew Point 53 °F    
Average Humidity 82    
Maximum Humidity 100    
Minimum Humidity 57    
Precipitation  
Precipitation 0.00 in - - ()
Sea Level Pressure  
Sea Level Pressure 29.96 in    
Wind  
Wind Speed 3 mph (SSW)    
Max Wind Speed 14 mph    
Max Gust Speed -    
Visibility 8 miles    
Events      
Averages and records for this station are not official NWS values.
T = Trace of Precipitation, MM = Missing Value Source: NWS Daily Summary

Daily Weather History Graph

Daily Weather History Graph

Search for Another Location

Airport:

Trip Planner

Search our weather history database for the weather conditions in past years. The results will help you decide how hot, cold, wet, or windy it might be!

Date:

Astronomy

Jun. 02, 2014 Rise Set
Actual Time 5:17 AM PDT 9:01 PM PDT
Civil Twilight 4:37 AM PDT 9:40 PM PDT
Nautical Twilight 3:44 AM PDT 10:34 PM PDT
Astronomical Twilight 2:29 AM PDT 11:50 PM PDT
Moon 10:01 AM PDT (6/2) No Moon Set
Length of Visible Light 17h 02m
Length of Day
15h 44m
Waxing Crescent, 22% of the Moon is Illuminated
Jun 2
Waxing Crescent
Jun 5
First Quarter
Jun 12
Full
Jun 19
Last Quarter
Jun 27
New

Hourly Weather History & Observations

Time (PDT) Temp. Dew Point Humidity Pressure Visibility Wind Dir Wind Speed Gust Speed Precip Events Conditions
12:15 AM 50.0 °F 50.0 °F 100% 30.02 in 10.0 mi Calm Calm - N/A   Clear
12:35 AM 48.2 °F 48.2 °F 100% 30.03 in 9.0 mi Calm Calm - N/A   Clear
12:55 AM 50.0 °F 50.0 °F 100% 30.03 in 9.0 mi Calm Calm - N/A   Clear
1:15 AM 48.2 °F 48.2 °F 100% 30.01 in 10.0 mi Calm Calm - N/A   Clear
1:35 AM 48.2 °F 48.2 °F 100% 30.02 in 10.0 mi Calm Calm - N/A   Clear
1:55 AM 48.2 °F 48.2 °F 100% 30.02 in 10.0 mi Calm Calm - N/A   Clear
2:15 AM 48.2 °F 48.2 °F 100% 30.02 in 10.0 mi Calm Calm - N/A   Clear
2:35 AM 48.2 °F 48.2 °F 100% 30.02 in 10.0 mi Calm Calm - N/A   Clear
2:55 AM 48.2 °F 48.2 °F 100% 30.01 in 10.0 mi Calm Calm - N/A   Clear
3:15 AM 48.2 °F 46.4 °F 93% 30.01 in 8.0 mi Calm Calm - N/A   Clear
3:35 AM 46.4 °F 46.4 °F 100% 30.00 in 1.0 mi Calm Calm - N/A   Clear
3:55 AM 44.6 °F 44.6 °F 100% 30.00 in 9.0 mi Calm Calm - N/A   Clear
4:15 AM 44.6 °F 44.6 °F 100% 30.00 in 9.0 mi Calm Calm - N/A   Clear
4:35 AM 46.4 °F 46.4 °F 100% 30.00 in 3.0 mi Calm Calm - N/A   Mostly Cloudy
4:55 AM 48.2 °F 48.2 °F 100% 30.01 in 0.2 mi Calm Calm - N/A   Overcast
5:15 AM 48.2 °F 48.2 °F 100% 30.01 in 0.2 mi Calm Calm - N/A   Overcast
5:35 AM 48.2 °F 48.2 °F 100% 30.02 in 0.2 mi Calm Calm - N/A   Overcast
5:55 AM 48.2 °F 48.2 °F 100% 30.02 in 0.2 mi Calm Calm - N/A   Overcast
6:15 AM 48.2 °F 48.2 °F 100% 30.02 in 0.2 mi Calm Calm - N/A   Overcast
6:35 AM 50.0 °F 50.0 °F 100% 30.02 in 0.2 mi Calm Calm - N/A   Overcast
6:55 AM 50.0 °F 50.0 °F 100% 30.01 in 0.2 mi Calm Calm - N/A   Overcast
7:15 AM 51.8 °F 51.8 °F 100% 30.02 in 0.2 mi Calm Calm - N/A   Overcast
7:35 AM 51.8 °F 51.8 °F 100% 30.02 in 0.2 mi Calm Calm - N/A   Overcast
7:55 AM 51.8 °F 51.8 °F 100% 30.02 in 0.2 mi Calm Calm - N/A   Overcast
8:15 AM 53.6 °F 53.6 °F 100% 30.01 in 1.8 mi SSW 3.5 mph - N/A   Overcast
8:35 AM 53.6 °F 51.8 °F 94% 30.02 in 6.0 mi Calm Calm - N/A   Overcast
8:55 AM 53.6 °F 53.6 °F 100% 30.01 in 7.0 mi Calm Calm - N/A   Overcast
9:15 AM 53.6 °F 51.8 °F 94% 30.01 in 8.0 mi Calm Calm - N/A   Overcast
10:15 AM 57.2 °F 55.4 °F 94% 30.00 in 10.0 mi SSW 3.5 mph - N/A   Partly Cloudy
10:35 AM 60.8 °F 57.2 °F 88% 29.99 in 10.0 mi South 5.8 mph - N/A   Clear
10:55 AM 62.6 °F 55.4 °F 77% 29.98 in 10.0 mi WSW 3.5 mph - N/A   Clear
11:15 AM 64.4 °F 57.2 °F 77% 29.98 in 10.0 mi SSW 5.8 mph - N/A   Clear
11:35 AM 64.4 °F 57.2 °F 77% 29.98 in 10.0 mi South 6.9 mph - N/A   Clear
11:55 AM 64.4 °F 57.2 °F 77% 29.98 in 10.0 mi South 6.9 mph - N/A   Clear
12:15 PM 66.2 °F 57.2 °F 73% 29.97 in 10.0 mi SW 3.5 mph - N/A   Clear
12:35 PM 68.0 °F 55.4 °F 64% 29.96 in 10.0 mi SSW 5.8 mph - N/A   Clear
12:55 PM 69.8 °F 57.2 °F 64% 29.96 in 10.0 mi West 5.8 mph - N/A   Partly Cloudy
1:15 PM 69.8 °F 57.2 °F 64% 29.95 in 10.0 mi Calm Calm - N/A   Mostly Cloudy
1:35 PM 69.8 °F 57.2 °F 64% 29.95 in 10.0 mi WSW 5.8 mph - N/A   Mostly Cloudy
1:55 PM 71.6 °F 59.0 °F 64% 29.94 in 10.0 mi SSW 8.1 mph - N/A   Scattered Clouds
2:15 PM 71.6 °F 57.2 °F 60% 29.94 in 10.0 mi SSW 8.1 mph - N/A   Partly Cloudy
2:35 PM 71.6 °F 55.4 °F 57% 29.93 in 10.0 mi SSW 5.8 mph - N/A   Clear
2:55 PM 71.6 °F 57.2 °F 60% 29.93 in 10.0 mi SW 8.1 mph - N/A   Clear
3:15 PM 73.4 °F 57.2 °F 57% 29.92 in 10.0 mi SW 9.2 mph - N/A   Clear
3:35 PM 73.4 °F 57.2 °F 57% 29.92 in 10.0 mi SW 6.9 mph - N/A   Clear
3:55 PM 73.4 °F 57.2 °F 57% 29.91 in 10.0 mi SW 10.4 mph - N/A   Clear
4:15 PM 73.4 °F 57.2 °F 57% 29.91 in 10.0 mi SSW 11.5 mph - N/A   Clear
4:35 PM 73.4 °F 59.0 °F 61% 29.91 in 10.0 mi SSW 10.4 mph - N/A   Clear
4:55 PM 73.4 °F 57.2 °F 57% 29.91 in 10.0 mi SSW 13.8 mph - N/A   Clear
5:15 PM 71.6 °F 57.2 °F 60% 29.90 in 10.0 mi SSW 10.4 mph - N/A   Clear
5:35 PM 71.6 °F 57.2 °F 60% 29.90 in 10.0 mi WSW 11.5 mph - N/A   Clear
5:55 PM 71.6 °F 57.2 °F 60% 29.90 in 10.0 mi SSW 11.5 mph - N/A   Clear
6:15 PM 71.6 °F 57.2 °F 60% 29.90 in 10.0 mi SW 11.5 mph - N/A   Clear
6:35 PM 71.6 °F 57.2 °F 60% 29.89 in 10.0 mi SSW 10.4 mph - N/A   Clear
6:55 PM 69.8 °F 57.2 °F 64% 29.89 in 10.0 mi SSW 10.4 mph - N/A   Clear
7:15 PM 69.8 °F 55.4 °F 60% 29.90 in 10.0 mi SSW 8.1 mph - N/A   Clear
7:35 PM 68.0 °F 55.4 °F 64% 29.90 in 10.0 mi SSW 5.8 mph - N/A   Clear
7:55 PM 66.2 °F 57.2 °F 73% 29.90 in 10.0 mi SSW 9.2 mph - N/A   Partly Cloudy
8:15 PM 64.4 °F 55.4 °F 73% 29.90 in 10.0 mi South 8.1 mph - N/A   Mostly Cloudy
8:35 PM 62.6 °F 53.6 °F 72% 29.91 in 10.0 mi SW 9.2 mph - N/A   Mostly Cloudy
8:55 PM 60.8 °F 53.6 °F 77% 29.92 in 10.0 mi South 8.1 mph - N/A   Scattered Clouds
9:15 PM 60.8 °F 53.6 °F 77% 29.92 in 10.0 mi South 6.9 mph - N/A   Scattered Clouds
9:35 PM 59.0 °F 51.8 °F 77% 29.93 in 10.0 mi SSW 9.2 mph - N/A   Partly Cloudy
9:55 PM 57.2 °F 51.8 °F 82% 29.93 in 10.0 mi SSW 6.9 mph - N/A   Scattered Clouds
10:15 PM 57.2 °F 51.8 °F 82% 29.94 in 10.0 mi SSW 10.4 mph - N/A   Partly Cloudy
10:35 PM 55.4 °F 51.8 °F 88% 29.93 in 10.0 mi SSW 8.1 mph - N/A   Partly Cloudy
10:55 PM 55.4 °F 50.0 °F 82% 29.94 in 10.0 mi SSW 6.9 mph - N/A   Partly Cloudy
11:15 PM 53.6 °F 50.0 °F 88% 29.94 in 10.0 mi South 6.9 mph - N/A   Mostly Cloudy
11:35 PM 51.8 °F 50.0 °F 94% 29.94 in 10.0 mi South 6.9 mph - N/A   Mostly Cloudy
11:55 PM 51.8 °F 48.2 °F 88% 29.94 in 10.0 mi South 6.9 mph - N/A   Mostly Cloudy